Weather History for Jefferson City, MO

Change the Weather History Date:

Friday, February 1, 2013

  Actual Average Record
Temperature  
Mean Temperature 20 °F -  
Max Temperature 32 °F 44 °F 77 °F (1989)
Min Temperature 9 °F 21 °F -10 °F (1979)
Degree Days  
Heating Degree Days 46    
Moisture  
Dew Point 3 °F    
Average Humidity 50    
Maximum Humidity 64    
Minimum Humidity 34    
Precipitation  
Precipitation 0.00 in - - ()
Sea Level Pressure  
Sea Level Pressure 30.37 in    
Wind  
Wind Speed 8 mph (SSW)    
Max Wind Speed 13 mph    
Max Gust Speed -    
Visibility 10 miles    
Events      
Averages and records for this station are not official NWS values.
T = Trace of Precipitation, MM = Missing Value Source: NWS Daily Summary

Daily Weather History Graph

Daily Weather History Graph

Search for Another Location

Airport:

Trip Planner

Search our weather history database for the weather conditions in past years. The results will help you decide how hot, cold, wet, or windy it might be!

Date:

Astronomy

Feb. 01, 2013 Rise Set
Actual Time 7:13 AM CST 5:31 PM CST
Civil Twilight 6:46 AM CST 5:58 PM CST
Nautical Twilight 6:14 AM CST 6:30 PM CST
Astronomical Twilight 5:43 AM CST 7:01 PM CST
Moon 11:33 PM CST (2/1) 9:52 AM CST (2/1)
Length of Visible Light 11h 12m
Length of Day
10h 17m
Waning Gibbous, 70% of the Moon is Illuminated
Feb 1
Waning Gibbous
Feb 3
Last Quarter
Feb 10
New
Feb 17
First Quarter
Feb 25
Full

Hourly Weather History & Observations

Time (CST) Temp. Windchill Dew Point Humidity Pressure Visibility Wind Dir Wind Speed Gust Speed Precip Events Conditions
12:53 AM 12.0 °F -2.7 °F -2.0 °F 53% 30.46 in 10.0 mi WNW 12.7 mph - N/A   Clear
1:53 AM 10.9 °F -3.4 °F -0.0 °F 61% 30.46 in 10.0 mi WNW 11.5 mph - N/A   Clear
2:53 AM 10.9 °F -0.8 °F -0.9 °F 59% 30.46 in 10.0 mi NW 8.1 mph - N/A   Clear
3:53 AM 10.0 °F -0.9 °F -0.9 °F 61% 30.45 in 10.0 mi West 6.9 mph - N/A   Clear
4:53 AM 10.0 °F -0.9 °F -0.9 °F 61% 30.45 in 10.0 mi WNW 6.9 mph - N/A   Clear
5:53 AM 9.0 °F -0.9 °F -0.9 °F 64% 30.46 in 10.0 mi West 5.8 mph - N/A   Clear
6:53 AM 9.0 °F 2.4 °F -0.9 °F 64% 30.47 in 10.0 mi West 3.5 mph - N/A   Clear
7:53 AM 10.0 °F 1.8 °F -0.9 °F 61% 30.49 in 10.0 mi West 4.6 mph - N/A   Clear
8:53 AM 10.9 °F 4.7 °F -2.0 °F 56% 30.50 in 10.0 mi SSW 3.5 mph - N/A   Clear
10:53 AM 17.1 °F 8.7 °F -0.0 °F 47% 30.50 in 10.0 mi Variable 5.8 mph - N/A   Clear
11:53 AM 19.9 °F 13.4 °F 1.0 °F 44% 30.46 in 10.0 mi South 4.6 mph - N/A   Clear
2:53 PM 27.0 °F 20.5 °F 1.9 °F 34% 30.35 in 10.0 mi SSE 5.8 mph - N/A   Clear
3:53 PM 28.0 °F 20.0 °F 3.9 °F 36% 30.34 in 10.0 mi SSW 8.1 mph - N/A   Partly Cloudy
4:53 PM 28.9 °F 22.8 °F 3.9 °F 35% 30.32 in 10.0 mi SSE 5.8 mph - N/A   Overcast
5:53 PM 28.9 °F 23.9 °F 6.1 °F 38% 30.29 in 10.0 mi South 4.6 mph - N/A   Overcast
6:53 PM 30.0 °F 26.5 °F 8.1 °F 40% 30.28 in 10.0 mi SSE 3.5 mph - N/A   Overcast
7:53 PM 28.9 °F 21.1 °F 10.0 °F 45% 30.24 in 10.0 mi ESE 8.1 mph - N/A   Overcast
8:53 PM 28.9 °F 21.9 °F 10.0 °F 45% 30.24 in 10.0 mi ESE 6.9 mph - N/A   Overcast
9:53 PM 28.9 °F 22.8 °F 12.0 °F 49% 30.23 in 10.0 mi ESE 5.8 mph - N/A   Overcast
10:53 PM 30.0 °F 23.2 °F 12.9 °F 49% 30.21 in 10.0 mi ESE 6.9 mph - N/A   Overcast
11:53 PM 32.0 °F 27.5 °F 12.0 °F 44% 30.19 in 10.0 mi South 4.6 mph - N/A   Scattered Clouds